Location: St. Malo Provincial Park
(49.3214°N, 96.9305°W)
Time: 07:18:08
(UTC-06:00)

Daily predictions for brighter satellites

Satellite Brightness Start Highest point End
(mag) Time Altitude Azimuth Time Altitude Azimuth Time Altitude Azimuth
MOS 1 4.3 17:34:07 10° SSE 17:39:45 73° ENE 17:45:27 10° NNW
Orbus 7S? 4.2 17:37:26 10° NW 17:40:22 36° NNE 17:45:39 10° E
Cosmos 44 4.4 17:39:28 10° S 17:43:56 29° ESE 17:48:15 10° ENE
SJ-12 4.0 17:41:20 10° SSE 17:45:27 87° WSW 17:49:37 10° NNW
CZ-4 R/B 1.5 17:44:29 10° S 17:48:22 79° WSW 17:52:19 10° NNW
Cosmos 1328 Rocket 3.6 17:44:16 10° N 17:48:45 90° W 17:53:12 10° S
ALOS 3.9 17:47:54 10° E 17:50:10 14° NE 17:52:25 10° NNE
Cosmos 2333 Rocket 2.6 17:45:57 10° S 17:51:14 43° ESE 17:56:34 10° NE
Cosmos 1743 Rocket 3.6 17:47:11 10° S 17:51:36 64° E 17:56:03 10° NNE
IDEFIX/ARIANE 42P 2.8 17:46:54 10° S 17:52:07 79° WSW 17:57:24 10° NNW
Cosmos 2219 Rocket 2.4 17:46:56 10° S 17:52:26 55° ESE 17:57:55 10° NE
Meteor 2-2 Rocket 4.3 17:49:34 10° NNW 17:55:15 88° W 18:00:54 10° S
Cosmos 1151 Rocket 3.0 17:51:35 10° N 17:55:49 57° ENE 18:00:02 10° SSE
Cosmos 1626 4.1 17:55:17 10° E 17:56:19 11° E 17:56:51 11° ENE
Cosmos 2322 Rocket 4.1 17:53:17 10° W 17:57:48 24° NW 18:02:20 10° N
MONITOR-E 4.4 17:56:09 10° SSE 17:59:14 50° ENE 18:02:20 10° N
Cosmos 2278 Rocket 2.2 17:53:30 10° NNW 17:59:14 85° ENE 18:04:56 10° SSE
Cosmos 1515 Rocket 3.6 17:54:52 10° N 17:59:22 88° E 18:03:49 10° S
Aureole 2 Rocket 4.0 17:58:22 10° SSE 18:01:25 23° E 18:04:26 11° NE
SJ-6B 4.1 17:58:30 10° ESE 18:01:40 22° ENE 18:04:51 10° NNE
Cosmos 1455 3.6 18:00:46 10° NNE 18:03:20 17° ENE 18:05:54 10° ESE
Cosmos 371 Rocket 3.4 17:58:44 10° S 18:03:27 60° ESE 18:08:12 10° NNE
SKYMED 2 4.3 18:02:23 10° NNE 18:06:22 34° E 18:10:19 10° SSE
Cosmos 1674 3.2 18:02:43 10° SSW 18:06:32 63° WNW 18:10:23 10° N
Cosmos 1726 2.1 18:03:30 10° N 18:07:17 72° ENE 18:11:03 10° SSE
SMAP 3.6 18:03:10 10° S 18:07:47 64° WSW 18:12:26 10° NNW
Cosmos 1763 Rocket 3.8 18:04:36 10° SSW 18:09:48 71° WNW 18:14:58 10° NNE
Lacrosse 4 Rocket 2.6 18:06:32 10° NNW 18:09:48 22° NE 18:12:09 14° E
Cosmos 372 Rocket 3.9 18:05:18 10° NNW 18:10:26 80° ENE 18:15:32 10° SSE
Meteor 1-27 4.3 18:10:48 10° N 18:16:37 67° ENE 18:22:25 10° SSE
Cosmos 1500 Rocket 3.5 18:13:05 10° S 18:17:25 84° E 18:21:49 10° N
Cosmos 540 Rocket 3.5 18:16:25 10° S 18:21:28 58° ESE 18:26:33 10° NNE
FREGAT/IRIS 3.8 18:19:03 10° ESE 18:21:32 23° ENE 18:24:02 10° NNE
Cosmos 2084 3.1 18:18:51 10° SW 18:22:43 76° SE 18:25:30 17° NE
Cosmos 1300 2.8 18:19:18 10° NNW 18:23:10 78° W 18:26:59 10° S
Cosmos 44 Rocket 3.3 18:19:38 10° SW 18:24:46 84° SE 18:29:13 13° NE
ATLAS 3B R/B 4.1 18:19:03 10° WNW 18:24:56 25° N 18:29:53 12° NE
Abrixas 4.2 18:23:58 10° SSW 18:26:13 20° SSE 18:27:16 17° ESE
Cosmos 2237 Rocket 2.2 18:22:05 10° SSW 18:27:38 64° ESE 18:33:13 10° NNE
Cosmos 2369 Rocket 3.5 18:23:39 10° N 18:27:46 20° NE 18:29:27 18° ENE
Sich 1 4.1 18:24:22 10° SE 18:27:55 24° E 18:29:42 18° NE
Cosmos 1340 Rocket 3.2 18:24:47 10° SSE 18:28:29 40° E 18:31:55 12° NNE
SL-14 R/B 3.2 18:25:37 10° S 18:29:32 72° E 18:33:33 10° NNE
USA 215 3.3 18:23:39 10° ESE 18:30:15 88° NNE 18:36:50 10° WNW
NOSS 0 Rocket 3.9 18:25:41 10° SSW 18:31:53 77° ESE 18:38:07 10° NNE
Cosmos 1461 4.1 18:29:23 10° S 18:32:42 23° ESE 18:33:36 22° E
Cosmos 1484 Rocket 3.2 18:28:46 10° S 18:32:42 69° W 18:36:43 10° NNW
COSMOS 2428 3.5 18:27:13 10° SW 18:32:45 50° NW 18:38:19 10° NNE
Cosmos 2058 2.9 18:28:58 10° S 18:33:00 59° E 18:37:03 10° NNE
Cosmos 1634 Rocket 4.5 18:28:03 10° NNW 18:34:11 64° W 18:40:14 10° S
SL-16 R/B 2.8 18:29:43 10° SSE 18:34:44 34° ESE 18:37:58 19° NE
Cosmos 1633 Rocket 4.1 18:31:47 10° SE 18:35:22 25° E 18:36:07 23° ENE
Cosmos 1869 4.2 18:36:26 10° NNE 18:39:56 27° ENE 18:40:07 27° ENE
Cosmos 2297 3.7 18:36:11 10° NNW 18:41:56 88° ENE 18:47:40 10° SSE
Cosmos 304 Rocket 4.1 18:37:38 10° S 18:42:11 44° ESE 18:45:06 21° NE
BREEZE-M DEB (TANK) 3.8 18:42:20 10° S 18:44:01 18° SE 18:44:01 18° SE
Cosmos 783 Rocket 4.5 18:41:13 10° SSW 18:46:30 73° ESE 18:51:29 12° NNE
Lacrosse 5 2.9 18:42:58 10° WNW 18:47:37 35° N 18:50:06 22° NE
Meteor 1-28 Rocket 3.1 18:44:44 14° NNE 18:47:54 62° E 18:51:35 10° S
BREEZE-M DEB (TANK) 2.3 18:49:35 10° SW 18:51:39 30° SSE 18:51:39 30° SSE
COSMO-SKYMED 1 2.6 18:50:11 10° NNE 18:54:34 82° WNW 18:58:54 10° SSW
Cosmos 1356 Rocket 3.6 18:50:52 10° SSE 18:54:39 42° E 18:55:25 37° ENE
Cosmos 1707 Rocket 3.4 18:50:26 10° N 18:54:47 76° E 18:59:07 10° SSE
CZ-3A R/B 2.9 18:51:06 10° WNW 18:56:21 73° SW 19:01:30 11° SE
DMSP B5D1-3 4.4 18:53:53 10° NNE 18:59:01 78° ESE 19:04:07 10° S
CZ-4C R/B 3.8 18:55:07 10° NW 19:00:31 27° NNE 19:02:59 22° NE
Aureole 1 Rocket 4.5 18:57:29 10° SSE 19:02:38 37° E 19:05:30 26° NE
Lacrosse 5 rocket 3.6 19:01:30 10° W 19:04:29 22° SW 19:07:34 10° S
Spot 2 Rocket 3.5 19:01:04 10° SE 19:05:57 53° ENE 19:10:52 10° N
Resurs 01 Rocket 1.7 19:03:49 19° SE 19:06:47 51° ENE 19:11:07 10° N
CENTAUR R/B 3.5 19:01:56 10° WSW 19:08:05 45° NNW 19:13:26 17° NE
BREEZE M DEB (TANK) 3.8 19:07:09 10° W 19:08:55 17° SW 19:09:43 14° S
Cosmos 1666 Rocket 3.5 19:05:12 10° S 19:09:30 62° E 19:11:29 30° NNE
USA 229 DEB 4.3 19:05:15 10° S 19:11:14 33° ESE 19:12:14 32° E
FENGYUN 3A 3.6 19:06:04 10° SSE 19:11:20 62° ENE 19:16:40 10° N
USA 229 4.3 19:05:22 10° S 19:11:21 33° ESE 19:12:17 32° E
Resurs 1-3 3.8 19:11:45 47° ENE 19:11:45 47° ENE 19:15:54 10° N
Cosmos 2360 Rocket 4.4 19:08:36 10° W 19:12:25 18° NW 19:16:15 10° N
Cosmos 2151 4.4 19:11:36 10° SW 19:15:33 38° WNW 19:19:30 10° N
Cosmos 1980 4.2 19:10:23 10° SW 19:15:59 58° WNW 19:20:42 15° NNE
METEOR-M 4.4 19:11:08 10° S 19:16:29 71° WSW 19:21:52 10° NNW
Cosmos 1538 Rocket 4.0 19:13:53 10° S 19:19:08 65° ESE 19:21:10 37° NE
Cosmos 2084 Rocket 4.4 19:16:45 10° NNW 19:19:10 28° N 19:19:10 28° N
Iridium 4 Rocket 4.0 19:17:01 10° SSE 19:19:42 33° SSE 19:19:42 33° SSE
ATLAS 5 CENTAUR R/B 3.2 19:18:03 10° NW 19:23:00 30° NNE 19:23:24 30° NE
Cosmos 44 3.9 19:19:53 10° SW 19:24:59 56° NW 19:27:14 30° NNE
ALOS 2.1 19:22:12 10° SSE 19:26:53 83° ENE 19:31:35 10° NNW
Cosmos 1867 4.3 19:22:17 10° NNW 19:27:09 36° NNE 19:27:09 36° NNE
FengYun 1-2 T 4.1 19:24:43 10° SSE 19:30:18 90° NE 19:35:51 10° NNW
TIMED 4.4 19:25:55 10° NNW 19:30:20 86° WSW 19:31:25 51° SSE
Cosmos 1626 2.4 19:27:24 10° SSW 19:31:08 67° W 19:31:36 59° NW
Cosmos 2333 Rocket 3.4 19:30:19 10° WSW 19:35:35 38° NW 19:39:53 15° NNE
SJ-6B 4.0 19:32:09 10° S 19:36:04 44° W 19:40:04 10° NNW
Cosmos 2242 Rocket 3.6 19:31:46 10° NNW 19:36:11 78° W 19:40:37 10° S
Aureole 2 Rocket 4.1 19:33:02 10° SW 19:36:41 38° WNW 19:38:20 26° N
Cosmos 2219 Rocket 3.7 19:31:41 10° WSW 19:36:41 32° NW 19:41:07 13° NNE
Cosmos 1455 3.3 19:35:40 10° NNW 19:39:18 44° W 19:42:55 10° SSW
Cosmos 1703 4.4 19:36:37 10° SSW 19:40:20 42° WNW 19:42:25 22° NNW
Cosmos 1943 Rocket 3.5 19:36:19 10° NNW 19:39:22 24° NNE 19:39:22 24° NNE
Nadezhda 4 Rocket 4.1 19:40:59 10° SSW 19:47:15 74° W 19:53:36 10° N
Lacrosse 4 Rocket 1.9 19:44:50 10° NW 19:48:33 54° W 19:48:33 54° W
Cosmos 773 Rocket 4.1 19:55:01 10° SSW 19:59:33 69° SSW 19:59:33 69° SSW
Sich 1 4.3 20:01:13 10° SW 20:05:24 40° WNW 20:06:47 31° NNW
Cosmos 1092 Rocket 4.2 20:01:22 10° SSW 20:07:40 72° W 20:14:03 10° N
Cosmos 2237 Rocket 3.9 20:07:17 10° WSW 20:12:08 29° NW 20:15:05 19° N
Cosmos 2369 Rocket 2.7 20:07:04 10° NNW 20:11:17 51° NNW 20:11:17 51° NNW
Cosmos 1633 Rocket 4.4 20:08:52 10° SW 20:12:59 38° WNW 20:13:18 37° WNW
ATLAS 3B R/B 3.7 20:11:33 10° NW 20:17:08 31° N 20:17:08 31° N
SL-16 R/B 3.0 20:13:15 10° SW 20:18:42 47° NW 20:19:54 41° NNW
Lacrosse 5 3.5 20:26:38 10° NW 20:29:18 28° NW 20:29:18 28° NW
Resurs 01 Rocket 4.1 20:41:21 15° SW 20:43:33 20° W 20:46:52 10° NW
CZ-4C R/B 3.6 20:43:48 10° NW 20:48:12 40° NNW 20:48:12 40° NNW
CENTAUR R/B 4.2 20:54:53 10° WNW 21:00:37 27° N 21:00:37 27° N
USA 229 DEB 4.4 20:54:54 10° SW 20:59:44 47° WSW 20:59:44 47° WSW
USA 229 4.5 20:55:01 10° SW 20:59:47 46° WSW 20:59:47 46° WSW
ATLAS 5 CENTAUR R/B 4.0 21:02:35 10° NW 21:04:58 26° NW 21:04:58 26° NW
